New York, NY

10:39 PM EST on December 05, 2019 (GMT -0500)
La Guardia

Weather History for KLGA - October, 2019

Change the Weather History Date:

Sunday, October 13, 2019

  Actual Average Record
Temperature  
Mean Temperature 62 °F 59 °F  
Max Temperature 67 °F 66 °F 86 °F (1954)
Min Temperature 56 °F 52 °F 39 °F (1988)
Degree Days  
Heating Degree Days 3 7  
Month to date heating degree days 45 67  
Since 1 July heating degree days 48 102  
Cooling Degree Days 0 1  
Month to date cooling degree days 27 18  
Year to date cooling degree days 1482 1208  
Growing Degree Days 10 (Base 50)    
Moisture  
Dew Point 46 °F    
Average Humidity 52    
Maximum Humidity 72    
Minimum Humidity 32    
Precipitation  
Precipitation 0.00 in 0.12 in 1.63 in (2005)
Month to date precipitation 1.05 1.62  
Year to date precipitation 37.53 35.60  
Snow  
Snow 0.00 in 0.00 in - ()
Month to date snowfall 0.0 0.0  
Since 1 July snowfall 0.0 0.0  
Snow Depth 0.00 in    
Sea Level Pressure  
Sea Level Pressure 30.06 in    
Wind  
Wind Speed 8 mph (North)    
Max Wind Speed 17 mph    
Max Gust Speed 21 mph    
Visibility 10 miles    
Events      
T = Trace of Precipitation, MM = Missing Value Source: NWS Daily Summary

Daily Weather History Graph

Daily Weather History Graph

Search for Another Location

Airport or City:

Astronomy

Oct. 13, 2019 Rise Set
Actual Time 7:04 AM EDT 6:18 PM EDT
Civil Twilight 6:36 AM EDT 6:46 PM EDT
Nautical Twilight 6:04 AM EDT 7:17 PM EDT
Astronomical Twilight 5:33 AM EDT 7:49 PM EDT
Moon 6:40 PM EDT (10/13) 6:35 AM EDT (10/13)
Length of Visible Light 12h 09m
Length of Day
11h 14m
Full, 100% of the Moon is Illuminated
Oct 13
Full
Oct 13
Full
Oct 21
Last Quarter
Oct 27
New
Nov 4
First Quarter

Hourly Weather History & Observations

Time (EDT) Temp. Dew Point Humidity Pressure Visibility Wind Dir Wind Speed Gust Speed Precip Events Conditions
12:51 AM 62.1 °F 48.9 °F 62% 29.98 in 10.0 mi WNW 16.1 mph - N/A   Scattered Clouds
1:51 AM 61.0 °F 50.0 °F 67% 29.99 in 10.0 mi NW 12.7 mph - N/A   Clear
2:51 AM 60.1 °F 48.9 °F 67% 29.99 in 10.0 mi NW 13.8 mph - N/A   Clear
4:51 AM 59.0 °F 48.9 °F 69% 30.03 in 10.0 mi NW 9.2 mph - N/A   Clear
5:51 AM 57.0 °F 48.0 °F 72% 30.05 in 10.0 mi NW 6.9 mph - N/A   Partly Cloudy
6:51 AM 57.0 °F 48.0 °F 72% 30.07 in 10.0 mi North 4.6 mph - N/A   Scattered Clouds
7:51 AM 57.0 °F 48.0 °F 72% 30.10 in 10.0 mi NNE 8.1 mph - N/A   Mostly Cloudy
8:51 AM 57.0 °F 44.1 °F 62% 30.12 in 10.0 mi North 9.2 mph - N/A   Mostly Cloudy
9:51 AM 59.0 °F 44.1 °F 58% 30.12 in 10.0 mi NNE 6.9 mph - N/A   Mostly Cloudy
10:51 AM 60.1 °F 42.1 °F 51% 30.12 in 10.0 mi North 4.6 mph - N/A   Mostly Cloudy
11:51 AM 61.0 °F 42.1 °F 50% 30.12 in 10.0 mi Variable 4.6 mph - N/A   Mostly Cloudy
12:51 PM 61.0 °F 42.1 °F 50% 30.09 in 10.0 mi NE 4.6 mph - N/A   Mostly Cloudy
1:51 PM 63.0 °F 39.9 °F 43% 30.08 in 10.0 mi North 3.5 mph - N/A   Mostly Cloudy
2:51 PM 64.9 °F 39.0 °F 39% 30.06 in 10.0 mi ENE 5.8 mph - N/A   Mostly Cloudy
3:51 PM 66.9 °F 35.1 °F 31% 30.05 in 10.0 mi ENE 8.1 mph - N/A   Mostly Cloudy
4:51 PM 66.0 °F 36.0 °F 33% 30.04 in 10.0 mi East 6.9 mph - N/A   Mostly Cloudy
5:51 PM 63.0 °F 45.0 °F 52% 30.04 in 10.0 mi South 9.2 mph - N/A   Mostly Cloudy
6:51 PM 61.0 °F 45.0 °F 56% 30.05 in 10.0 mi South 9.2 mph - N/A   Mostly Cloudy
7:51 PM 61.0 °F 46.9 °F 60% 30.05 in 10.0 mi South 9.2 mph - N/A   Mostly Cloudy
8:51 PM 61.0 °F 50.0 °F 67% 30.04 in 10.0 mi SSW 9.2 mph - N/A   Mostly Cloudy
9:51 PM 62.1 °F 51.1 °F 67% 30.04 in 10.0 mi South 5.8 mph - N/A   Overcast
10:51 PM 62.1 °F 52.0 °F 70% 30.03 in 10.0 mi South 6.9 mph - N/A   Overcast
11:51 PM 62.1 °F 53.1 °F 72% 30.02 in 10.0 mi SW 5.8 mph - N/A   Overcast